Regional Weather Roundup
Issued by NWS

Home | Current Version | Previous Version | Graphics & Text | Print | Product List | Glossary On
Versions: 1 2 3 4 5 6 7 8 9 10 11 12 13 14 15 16 17 18 19 20 21 22 23 24 25 26 27
000
ASUS45 KCYS 212210
RWRWY

WYOMING REGIONAL WEATHER ROUNDUP
NATIONAL WEATHER SERVICE CHEYENNE WY
300 PM MST TUE NOV 21 2017

NOTE:  "FAIR" INDICATES FEW OR NO CLOUDS BELOW 12,000 FEET
WITH NO SIGNIFICANT WEATHER AND/OR OBSTRUCTIONS TO VISIBILITY.

WYZ001-212300-
YELLOWSTONE NATIONAL PARK

CITY           SKY/WX    TMP DP  RH WIND       PRES   REMARKS
LK YELLOWSTONE   N/A     34  30  85 VRB3      30.36R
W YELLOWSTONE  NOT AVBL

$$
WYZ002>013-054>058-071-098>099-212300-
NORTHERN WYOMING

CITY           SKY/WX    TMP DP  RH WIND       PRES   REMARKS
JACKSON        FAIR      46  34  62 SW15      30.32R
CODY           FAIR      46  31  55 SE14      30.18F
GREYBULL       FAIR      45  29  53 S8        30.22F
WORLAND        FAIR      47  31  53 E6        30.21F
SHERIDAN       FAIR      43  34  70 CALM      30.18F
BUFFALO        FAIR      43  27  53 S12       30.19F
GILLETTE       FAIR      44  26  49 SW9       30.20F
HULETT         FAIR      36  27  69 SW13      30.22S WCI  27
NEWCASTLE      FAIR      36  21  55 CALM      30.27S

$$
WYZ014>020-022>026-101>103-212300-
CENTRAL WYOMING

CITY           SKY/WX    TMP DP  RH WIND       PRES   REMARKS
BIG PINEY      FAIR      47  33  58 N10       30.33S
PINEDALE       FAIR      43  32  65 NW10      30.34R
DUBOIS         FAIR      43  28  56 NW22      30.25R
LANDER         FAIR      50  30  46 SE6       30.20F
RIVERTON       FAIR      48  32  53 E6        30.21F
CASPER         FAIR      46  31  55 SW12      30.22F
DOUGLAS        FAIR      45  29  53 SE5       30.24F

$$
WYZ021-027>030-104>119-212300-
SOUTHERN WYOMING

CITY           SKY/WX    TMP DP  RH WIND       PRES   REMARKS
EVANSTON       PTSUNNY   47  37  68 SW10      30.38S
KEMMERER       CLOUDY    43  34  70 W9        30.37R
FORT BRIDGER   MOCLDY    46  37  73 W10       30.39S
ROCK SPRINGS   FAIR      45  35  68 W23G30    30.33S
DIXON          MOCLDY    49  35  57 W15G24    30.36R
RAWLINS        PTSUNNY   47  31  53 W24G33    30.28S
SARATOGA       MOCLDY    45  34  65 W14       30.32R
LARAMIE        FAIR      41  34  76 SW7       30.27S
CHEYENNE       FAIR      41  33  73 S17       30.27S
TORRINGTON     FAIR      47  27  45 W7        30.25F
PINE BLUFFS    FAIR      45  28  53 N6        30.28F

$$




USA.gov is the U.S. government's official web portal to all federal, state and local government web resources and services.